GW1374 Weather Reports


time (UTC)temp
C
wind
direction
speed
KPH
gust
KPH
rain 1hr
cm
rain 24hr
cm
rain mn
cm
humidity
%
barometer
mb
20260507030052 5 0 0.0 3.2 0.00 0.89 0.89 95 1010.1
20260507024600 5 0 0.0 3.2 0.00 0.89 0.89 95 1010.1
20260507023051 5 0 0.0 3.2 0.00 0.89 0.89 95 1010.0
20260507021548 5 239 0.0 3.2 0.00 0.89 0.89 95 1010.4
20260507020105 5 0 0.0 3.2 0.00 0.89 0.89 95 1010.4
20260507014546 5 282 0.0 1.6 0.00 0.89 0.89 94 1010.6
20260507013052 5 0 0.0 3.2 0.00 0.89 0.89 94 1010.3
20260507011541 5 301 0.0 3.2 0.00 0.89 0.89 94 1010.6
20260507010040 5 0 0.0 3.2 0.00 0.89 0.89 94 1010.1
20260507004554 5 0 0.0 3.2 0.00 0.89 0.89 94 1010.0
20260507003048 5 309 0.0 4.8 0.00 0.89 0.89 94 1009.9
20260507001547 6 0 0.0 3.2 0.00 0.89 0.89 94 1009.8
20260507000045 6 275 1.6 4.8 0.00 0.89 0.89 94 1009.7
20260506234548 6 0 1.6 3.2 0.00 0.89 0.89 94 1009.4
20260506233058 6 309 1.6 4.8 0.00 0.89 0.89 94 1009.3
20260506231554 6 284 1.6 4.8 0.00 0.89 0.89 94 1009.4
20260506230052 6 286 0.0 3.2 0.00 0.89 0.89 94 1009.0
20260506224546 6 0 0.0 3.2 0.00 0.91 0.89 95 1009.1
20260506223046 6 0 0.0 4.8 0.00 0.91 0.89 95 1008.7
20260506221543 6 0 0.0 3.2 0.00 0.91 0.89 95 1008.9
20260506220049 6 43 0.0 6.4 0.00 0.91 0.89 94 1008.6
20260506214552 6 15 3.2 8.0 0.00 0.91 0.89 94 1008.7
20260506213058 7 316 1.6 8.0 0.00 0.91 0.89 94 1008.5
20260506211547 7 312 3.2 12.9 0.00 0.91 0.89 94 1008.2
20260506210043 7 13 1.6 6.4 0.00 0.91 0.89 95 1007.9
20260506204546 7 41 3.2 11.3 0.03 0.91 0.89 95 1007.7
20260506203048 7 309 1.6 6.4 0.03 0.91 0.89 95 1007.5
20260506201548 7 41 3.2 9.7 0.05 0.91 0.89 95 1007.0
20260506200048 7 178 1.6 4.8 0.05 0.91 0.89 95 1006.9
20260506194547 7 309 3.2 8.0 0.03 0.99 0.86 95 1006.9
20260506193043 7 26 1.6 4.8 0.03 0.99 0.86 95 1007.0
20260506191545 8 34 1.6 6.4 0.03 0.97 0.84 95 1006.7
20260506190048 8 24 3.2 6.4 0.03 0.97 0.84 95 1006.7
20260506184551 8 64 1.6 4.8 0.03 0.97 0.84 95 1006.3
20260506183053 8 0 1.6 6.4 0.03 0.97 0.84 95 1006.2
20260506181615 8 346 1.6 6.4 0.00 0.94 0.81 95 1006.1
20260506180051 8 57 1.6 6.4 0.00 0.94 0.81 95 1006.1
20260506174545 8 330 1.6 6.4 0.00 0.99 0.81 95 1005.8
20260506173057 8 51 0.0 6.4 0.00 0.99 0.81 95 1005.6
20260506171546 8 292 1.6 6.4 0.00 0.99 0.81 95 1005.6
20260506170050 9 41 1.6 4.8 0.03 0.99 0.81 95 1005.7
20260506164547 9 344 3.2 9.7 0.03 0.99 0.81 94 1005.6
20260506163045 11 312 3.2 11.3 0.03 0.99 0.81 93 1005.4
20260506161549 12 291 1.6 6.4 0.03 0.99 0.81 96 1005.3
20260506160048 12 247 1.6 6.4 0.00 0.97 0.79 96 1005.0
20260506154550 12 236 1.6 4.8 0.03 0.97 0.79 96 1005.3
20260506153106 12 249 3.2 6.4 0.05 0.97 0.79 96 1005.4
20260506151545 12 178 1.6 6.4 0.05 0.97 0.79 96 1005.3
20260506150058 12 221 1.6 6.4 0.08 0.97 0.79 96 1005.4
20260506144554 12 212 1.6 4.8 0.08 0.94 0.76 96 1005.2
20260506143048 12 205 1.6 4.8 0.08 0.91 0.74 96 1005.1
20260506141542 12 255 1.6 4.8 0.15 0.91 0.74 96 1005.2
20260506140043 11 218 1.6 6.4 0.18 0.89 0.71 96 1005.4
20260506134549 11 232 1.6 4.8 0.25 0.86 0.69 96 1005.5
20260506133044 11 209 1.6 6.4 0.33 0.84 0.66 96 1005.7
20260506131546 11 265 3.2 6.4 0.30 0.76 0.58 96 1005.9
20260506130048 10 178 1.6 4.8 0.25 0.71 0.53 96 1006.1
20260506124547 10 221 1.6 6.4 0.18 0.61 0.43 96 1006.1
20260506123047 10 221 1.6 4.8 0.13 0.51 0.33 96 1005.7
20260506121545 10 265 0.0 3.2 0.20 0.46 0.28 95 1005.6
20260506120043 10 126 1.6 4.8 0.20 0.46 0.28 95 1005.6
20260506114544 9 193 1.6 3.2 0.20 0.43 0.25 95 1005.8
20260506113044 9 76 0.0 3.2 0.15 0.38 0.20 95 1006.4
20260506111545 9 165 0.0 3.2 0.03 0.25 0.08 95 1006.5
20260506110043 9 119 0.0 3.2 0.05 0.25 0.08 95 1006.4
20260506104550 9 108 0.0 3.2 0.03 0.23 0.05 95 1006.3
20260506103053 8 105 0.0 3.2 0.03 0.23 0.05 95 1006.3
20260506101544 8 46 1.6 3.2 0.03 0.20 0.03 94 1006.1
20260506100041 9 44 1.6 3.2 0.03 0.20 0.03 94 1006.0
20260506094549 9 0 0.0 3.2 0.03 0.20 0.03 94 1006.0
20260506093042 9 316 0.0 3.2 0.03 0.20 0.03 94 1005.9
20260506091554 9 153 1.6 3.2 0.00 0.18 0.00 93 1005.9
20260506090056 9 129 0.0 4.8 0.00 0.18 0.00 93 1006.2
20260506084548 9 105 0.0 4.8 0.00 0.18 0.00 93 1006.4
20260506083048 9 265 3.2 6.4 0.00 0.18 0.00 92 1006.6
20260506081547 9 108 0.0 4.8 0.00 0.18 0.00 92 1006.6
20260506073050 9 64 1.6 6.4 0.00 0.18 0.00 90 1006.5
20260506071549 9 74 3.2 6.4 0.00 0.18 0.00 90 1006.7
20260506061544 10 93 1.6 6.4 0.00 0.18 0.00 89 1007.3
20260506044542 10 61 1.6 4.8 0.00 0.18 0.00 88 1008.5
20260506043039 10 102 3.2 4.8 0.00 0.18 0.00 88 1008.5
20260506041544 10 123 3.2 6.4 0.00 0.18 0.00 88 1008.3
20260506040046 10 105 3.2 4.8 0.00 0.18 0.00 88 1008.6
20260506034557 10 93 3.2 6.4 0.00 0.18 0.18 87 1008.7
20260506033044 10 106 3.2 4.8 0.00 0.18 0.18 87 1008.9
20260506031543 10 80 3.2 6.4 0.00 0.18 0.18 86 1008.8